Regional Weather Roundup
Issued by NWS

Home | Current Version | Previous Version | Text Only | Print | Product List | Glossary On
Versions: 1 2 3 4 5 6 7 8 9 10 11 12 13 14 15 16 17 18 19 20 21 22 23 24 25 26 27 28 29 30 31 32 33 34 35 36 37 38 39 40 41 42 43 44 45 46 47 48 49 50
000
ASUS43 KDTX 121610
RWRMI
MICHIGAN HOURLY REGIONAL WEATHER ROUNDUP
NATIONAL WEATHER SERVICE DETROIT/PONTIAC MI
1200 PM EDT SAT JUL 12 2014

NOTE: "FAIR" INDICATES FEW OR NO CLOUDS BELOW 12,000 FEET WITH NO
SIGNIFICANT WEATHER AND/OR OBSTRUCTION TO VISIBILITY.

MIZ047>049-052>055-059>063-066>070-074>076-081>083-121700-
SOUTHEAST LOWER MICHIGAN

CITY           SKY/WX    TMP DP  RH WIND       PRES   REMARKS
ADRIAN         MOSUNNY   80  62  54 SW10      30.13F
ALMA           MOSUNNY   79  61  54 SW8       30.09F
ANN ARBOR      MOSUNNY   80  61  52 SW8       30.12F
BAD AXE        SUNNY     79  58  49 S8        30.11R
DETROIT CITY   MOSUNNY   83  59  44 S9        30.12F
DETROIT        PTSUNNY   81  61  50 S9        30.12F
FLINT          PTSUNNY   81  61  50 SW8       30.11S
GROSSE ILE     SUNNY     79  68  69 S8        30.11F
HILLSDALE      PTSUNNY   79  64  59 SW7       30.14S
HOWELL         MOSUNNY   79  60  53 S10       30.12F

CITY           SKY/WX    TMP DP  RH WIND       PRES   REMARKS
JACKSON        PTSUNNY   79  62  56 SW6       30.12F
LAMBERTVILLE   MOSUNNY   82  59  44 S10       30.13S
LANSING        PTSUNNY   79  62  56 SW10      30.10F
LAPEER         NOT AVBL
MASON          PTSUNNY   78  61  55 S7        30.11F
MONROE         SUNNY     84  57  39 SW10      30.11S
PONTIAC        PTSUNNY   80  59  48 VRB5      30.12S
PORT HOPE        N/A     80  58  46 VRB7      30.08S
PORT HURON     MOSUNNY   79  63  57 S7        30.12S
TRI CITIES     PTSUNNY   80  61  52 S9        30.09F
YPSILANTI      MOSUNNY   85  62  46 S10       30.12F
$$
MIZ043>046-050>051-056>058-064>065-071>073-077>080-121700-
SOUTHWEST LOWER MICHIGAN

CITY           SKY/WX    TMP DP  RH WIND       PRES   REMARKS
BATTLE CREEK   CLOUDY    78  63  59 S9        30.10F
BENTON HARBOR  CLOUDY    76  67  73 S7        30.08R
BIG RAPIDS     PTSUNNY   76  63  63 S8        30.06F
COLDWATER      CLOUDY    80  65  59 S6        30.11S
HOLLAND        LGT RAIN  72  67  84 S5        30.08S
GRAND RAPIDS   PTSUNNY   79  65  62 S8        30.08F
KALAMAZOO      CLOUDY    79  65  62 S7        30.08F
MARSHALL       CLOUDY    78  64  62 S7        30.10F
MUSKEGON       CLOUDY    77  63  61 S13       30.05F
$$
MIZ016>042-121700-
NORTHERN LOWER MICHIGAN

CITY           SKY/WX    TMP DP  RH WIND       PRES   REMARKS
ALPENA         PTSUNNY   77  60  55 S6        30.04F
BEAVER ISLAND  PTSUNNY   68  62  79 SW13G20   30.00F
BELLAIRE       CLOUDY    76  61  59 S5        30.01F
CADILLAC       CLOUDY    76  63  62 S7        30.05F
CHARLEVOIX     CLOUDY    75  63  65 SW6       30.04F
FRANKFORT      CLOUDY    75  61  60 S9G17     30.02S
GAYLORD        PTSUNNY   74  61  63 SW13      30.05F
GRAYLING       PTSUNNY   76  61  59 S6        30.06F
HARBOR SPRINGS CLOUDY    72  62  71 SW5       30.00F
HOUGHTON LAKE  PTSUNNY   78  62  57 SW8       30.07F
MANISTEE       CLOUDY    73  63  68 S5        30.03F
OSCODA         PTSUNNY   81  58  45 SW13      30.06S
PELLSTON       PTSUNNY   73  62  68 VRB5      30.02S
TRAVERSE CITY  CLOUDY    78  62  57 SW8       30.00F
$$
MIZ007>008-015-121700-
EASTERN UPPER MICHIGAN

CITY           SKY/WX    TMP DP  RH WIND       PRES   REMARKS
KINROSS        MOSUNNY   73  63  68 S7        29.99F
MACKINAC ISLAN CLOUDY    69  63  80 W7        30.00F
NEWBERRY       MOSUNNY   74  64  71 SW5       29.98F
S. S. MARIE    CLOUDY    73  61  65 SW5       29.98F
$$
MIZ004>006-011>014-085-121700-
CENTRAL UPPER MICHIGAN

CITY           SKY/WX    TMP DP  RH WIND       PRES   REMARKS
MANISTIQUE     MOSUNNY   64  59  81 S8        29.98F
ESCANABA       PTSUNNY   73  63  68 S8        29.97F
MENOMINEE      CLOUDY    75  64  69 SW6       29.97F
SAWYER-GWINN   MOSUNNY   77  66  69 W7        29.98F
$$
MIZ001>003-009>011-084-121700-
WESTERN UPPER MICHIGAN

CITY           SKY/WX    TMP DP  RH WIND       PRES   REMARKS
IRON MOUNTAIN  CLOUDY    75  66  73 VRB3      29.97F
HOUGHTON       SUNNY     71  58  63 N7        29.96F
COPPER HARBOR    N/A     66  55  67 N6        29.95F
IRONWOOD       PTSUNNY   72  61  68 NW7       29.97S
$$

ABBREVIATIONS USED IN REMARKS
   TC - TEMPERATURE IN CELSIUS
  WCI - WIND CHILL INDEX
   HX - HEAT INDEX
  VSB - VISIBILITY



USA.gov is the U.S. government's official web portal to all federal, state and local government web resources and services.